Regional Weather Roundup
Issued by NWS

Home | Current Version | Previous Version | Text Only | Print | Product List | Glossary On
Versions: 1 2 3 4 5 6 7 8 9 10 11 12 13 14 15 16 17 18 19 20 21 22 23 24 25 26 27 28 29 30 31 32 33 34 35 36 37 38 39 40 41 42 43 44 45 46 47 48 49 50
000
ASCA44 KEWX 170820
RWRMX

LATIN AMERICA AND CARIBBEAN REGIONAL WEATHER ROUNDUP
NATIONAL WEATHER SERVICE AUSTIN/SAN ANTONIO TX
300 AM CDT TUE OCT 17 2017

NOTE: "FAIR" INDICATED FEW OR NO CLOUDS BELOW 12,000 FEET WITH NO
SIGNIFICANT WEATHER AND/OR OBSTRUCTIONS TO VISIBILITY.

BAJA CALIFORNIA

CITY           SKY/WX    TMP DP  RH WIND       PRES   REMARKS
MEXICALI       CLEAR     70  27  19 NW7       29.97S
S.J. DEL CABO    N/A    N/A N/A N/A MISG        N/A
TIJUANA        CLEAR     72  41  33 CALM      30.03F

NORTHWESTERN MEXICO

CITY           SKY/WX    TMP DP  RH WIND       PRES   REMARKS
HERMOSILLO     CLEAR     81  54  39 CALM      29.95S

NORTHEASTERN MEXICO

CITY           SKY/WX    TMP DP  RH WIND       PRES   REMARKS
MONCLOVA         N/A    N/A N/A N/A MISG        N/A
MONTERREY      CLEAR     57  46  67 NW6       30.26F
REYNOSA          N/A    N/A N/A N/A MISG        N/A
CD. VICTORIA     N/A    N/A N/A N/A MISG        N/A

WESTERN MEXICO

CITY           SKY/WX    TMP DP  RH WIND       PRES   REMARKS
AGUASCALIENTES   N/A    N/A N/A N/A MISG        N/A
COLIMA           N/A    N/A N/A N/A MISG        N/A
GUADALAJARA    CLEAR     61  50  67 E6        30.29F
MAZATLAN       PTCLDY    79  77  94 CALM      29.89F
P. VALLARTA    CLEAR     79  79 100 NE3       29.89F
URUAPAN          N/A    N/A N/A N/A MISG        N/A
ZACATECAS      CLEAR     54  50  87 CALM      30.42F

CENTRAL MEXICO

CITY           SKY/WX    TMP DP  RH WIND       PRES   REMARKS
CUERNAVACA       N/A    N/A N/A N/A MISG        N/A
MEXICO CITY    MOCLDY    57  46  67 W8        30.45F
MORELIA        CLEAR     54  52  94 CALM      30.32F
POZA RICA        N/A    N/A N/A N/A MISG        N/A
QUERETARO      MOCLDY    55  52  88 E9        30.44F
S. LUIS POTOSI CLEAR     55  46  71 CALM      30.40F
TOLUCA         PTCLDY    45  43  93 NW7       30.47F WCI  41

SOUTHERN MEXICO

CITY           SKY/WX    TMP DP  RH WIND       PRES   REMARKS
ACAPULCO       CLEAR     81  77  89 CALM      29.85S
B. DE HUATULCO   N/A    N/A N/A N/A MISG        N/A
P. ESCONDIDO     N/A    N/A N/A N/A MISG        N/A
VERACRUZ         N/A    N/A N/A N/A MISG        N/A

YUCATAN PENINSULA

CITY           SKY/WX    TMP DP  RH WIND       PRES   REMARKS
CAMPECHE         N/A    N/A N/A N/A MISG        N/A
CANCUN         PTCLDY    77  77 100 W2        29.91S
CHETUMAL         N/A    N/A N/A N/A MISG        N/A
CD. DEL CARMEN   N/A    N/A N/A N/A MISG        N/A
COZUMEL        PTCLDY    77  75  94 CALM      29.88F
MERIDA         PTCLDY    73  72  94 E5        29.91F
MINATITLAN       N/A    N/A N/A N/A MISG        N/A
TAPACHULA      MOCLDY    75  75 100 CALM      29.80F

CENTRAL AMERICA

CITY           SKY/WX    TMP DP  RH WIND       PRES   REMARKS
MANAGUA        MOSUNNY   77  73  88 SE5       29.77F

CARIBBEAN

CITY           SKY/WX    TMP DP  RH WIND       PRES   REMARKS
ARUBA          PTCLDY    84  77  79 E18       29.77F HX  94
CURACAO        PTCLDY    82  77  83 SE13      29.83F HX  91
KINGSTON       PTCLDY    82  75  78 VRB2      29.83S
NASSAU         PTCLDY    79  73  83 CALM      29.93S
SAN JUAN       PTCLDY    77  77 100 CALM      29.94S
SANTO DOMINGO  MOCLDY    77  75  94 E5        29.89S
ST. THOMAS       N/A     82  79  89 E15G24    29.93  HX  93

$$





USA.gov is the U.S. government's official web portal to all federal, state and local government web resources and services.